National Weather Service United States Department of Commerce


000
ASUS42 KCAE 030810
RWRCAE
REGIONAL WEATHER ROUNDUP
NATIONAL WEATHER SERVICE COLUMBIA SC
300 AM EST SUN MAR 03 2024

NOTE: "FAIR" INDICATES FEW OR NO CLOUDS BELOW 12,000 FEET WITH NO
SIGNIFICANT WEATHER AND/OR OBSTRUCTIONS TO VISIBILITY.

NOT ALL STATIONS ARE QUALITY CONTROLLED BY THE NATIONAL
WEATHER SERVICE. USE DATA WITH CAUTION...ESPECIALLY
DEWPOINT OBSERVATIONS.

SCZ001>059-115-116-135>137-GAZ040-063>065-077-030900-
...UPSTATE SOUTH CAROLINA...

CITY SKY/WX TMP DP RH WIND PRES REMARKS
ANDERSON FOG 53 51 93 CALM 30.14F VSB 1/2
LIBERTY CLOUDY 54 54 100 CALM 30.13S
SPARTANBURG CLOUDY 54 52 94 W3 30.13F
CLEMSON CLOUDY 53 53 100 CALM 30.14S FOG
GREENVILLE CLOUDY 54 53 97 VRB5 30.14F
GREENWOOD CLOUDY 53 53 100 CALM 30.16S FOG
GREER CLOUDY 55 51 86 W3 30.14F
ROCK HILL CLOUDY 55 54 96 CALM 30.14F
CHESTER FOG 54 54 100 CALM 30.15S VSB 1
LAURENS FOG 52 52 100 CALM 30.15F VSB 1


...CENTRAL SOUTH CAROLINA...

CITY SKY/WX TMP DP RH WIND PRES REMARKS
COLUMBIA APT CLOUDY 53 53 100 SW3 30.13F FOG
COLUMBIA OWENS CLOUDY 55 54 96 CALM 30.14S FOG
MCENTIRE ANGB MOCLDY 50 50 100 W3 30.12S
ORANGEBURG CLOUDY 57 56 96 CALM 30.14S FOG
SUMTER SHAW CLEAR 55 54 94 NW5 30.11F FOG
NEWBERRY FOG 54 52 94 CALM 30.17F VSB 3/4
AIKEN FOG 55 55 99 CALM 30.15S VSB 1/2
BARNWELL CLOUDY 55 55 100 CALM 30.14S
MANNING FOG 54 54 100 CALM 30.14S VSB 1/4
CAMDEN FOG 48 48 100 CALM 30.14S VSB<1/4
LANCASTER CLOUDY 52 52 100 CALM 30.14S
WINNSBORO FOG 54 54 100 CALM 30.14F VSB 1/4


...EASTERN AND COASTAL SOUTH CAROLINA...

CITY SKY/WX TMP DP RH WIND PRES REMARKS
MYRTLE BEACH PTCLDY 59 59 100 N3 30.13F
N MYRTLE BCH FOG 57 55 93 N3 30.12F VSB 1/2
CONWAY FOG 52 52 100 CALM 30.14S VSB 1/2
MARION FOG 52 52 100 CALM 30.14S VSB 1
HARTSVILLE FOG 48 48 100 CALM 30.13F VSB<1/4
FLORENCE FOG 50 50 100 CALM 30.13F VSB 1/4
DARLINGTON FOG 49 49 100 CALM 30.14F VSB 1/4
CHARLESTON APT CLOUDY 62 59 90 CALM 30.13R
MOUNT PLEASANT FOG 59 59 100 CALM 30.13R VSB 1/4
WALTERBORO CLOUDY 59 59 100 SW3 30.15R
BEAUFORT CLOUDY 60 59 96 CALM 30.13S FOG
HILTON HEAD FOG 61 61 100 CALM 30.13F VSB 1/2


...EASTERN GEORGIA...

CITY SKY/WX TMP DP RH WIND PRES REMARKS
AUGUSTA BUSH F CLOUDY 58 56 93 NW5 30.13S
AUGUSTA DANIEL CLOUDY 57 55 93 NW8 30.14F FOG
THOMSON CLOUDY 56 56 98 W3 30.14F FOG
WASHINGTON CLOUDY 54 54 99 N5 30.15F FOG
CLAXTON FOG 60 58 95 CALM 30.14R VSB 1/4
SYLVANIA FOG 55 55 98 CALM 30.15R VSB 1/4
STATESBORO CLOUDY 56 55 96 CALM 30.14R FOG
SAVANNAH FOG 61 60 97 CALM 30.13S VSB 1/2


...SOUTHERN NORTH CAROLINA...

CITY SKY/WX TMP DP RH WIND PRES REMARKS
CHARLOTTE MOCLDY 55 52 89 SW3 30.14S
MONROE FOG 51 51 100 W3 30.13S VSB 1/4
WADESBORO FOG 50 49 96 CALM 30.14S VSB 1/2
ROCKINGHAM FOG 55 55 97 CALM 30.13F VSB 1/2
RUTHERFORDTON CLOUDY 52 52 100 CALM 30.14F FOG
ASHEVILLE PTCLDY 46 44 93 CALM 30.15S

$$